Zurück zum Katalog

SL-12 DEB

AktivHEO
NORAD 25806·DEBRIS·🇷🇺 Russia

Gestartet Sep 16, 1987 von Baikonur Cosmodrome

Loading…

Nächste Überflüge (nächste 24 Stunden)

TLE

AktuellSource: Space-Track

Epoche: Sep 13, 2026, 21:12 UTC

1 25806U 87079R   26256.88378931  .00062450  00000-0  12883-1 0  9990
2 25806  64.4182 215.0817 4360523 354.0226   2.1429  6.67796163178901

Verfolge SL-12 DEB in Echtzeit mit AllMySat

Download on the App Store